Location: Unspecified
(52.0000°N, 4.4000°E)
Time: 01:07:43
(UTC+00:00)

NOSS 2-3 (C) - Pass Details

Date: 14 May 2025
Orbit: 469 x 1713 km, 63.3° (Epoch: 15 June)

Event Time Altitude Azimuth Distance (km) Brightness Sun altitude
Rises 20:35:14 0° 215° (SW) 2,506 6.6 -8.7°
Reaches altitude 10° 20:37:17 10° 212° (SSW) 1,628 5.6 -8.9°
Maximum altitude 20:40:45 64° 131° (SE) 550 3.0 -9.3°
Drops below altitude 10° 20:44:39 10° 50° (NE) 1,832 6.0 -9.7°
Sets 20:47:05 0° 47° (NE) 2,861 7.0 -9.9°
